Notices

What's New in latest Release from April 7th, 2021:

- Updated Glossary, including Speed of Maximum Gust, and Total Hourly Precipitation

- Updated national and regional climate services offices contacts and prices information

- Addition of station inventory lists for 1981-2010, 1971-2000, and 1961-1990 Normals.

If you haven't already, please take our survey and provide feedback about our website: https://eccc.sondage-survey.ca/f/LanguageSelection.aspx?s=442ca660-fcf1-47c0-95a9-59707d6fd709

Hourly Data Report for January 19, 2021

OTTAWA INTL A
ONTARIO
Current Station Operator: NAVCAN

45°19'00.000" N
75°40'00.000" W
114.90 m
6106001
71628
YOW

Download Data

Hourly Data (January 2021)
Hourly Data Report for January 19, 2021
TIME
LST
Temp Definition
°C
Dew Point Definition
°C
Rel Hum Definition
%
Precip. Amount Definition
mm

Wind Dir Definition
10's deg

Wind Spd Definition
km/h
Visibility Definition
km
Stn Press Definition
kPa
Hmdx Definition


Wind Chill Definition


Weather Definition


00:00 -13.2 -14.8 88   24 3 24.1 99.97   -15 LegendNANA
01:00 -14.8 -16.6 87   24 4 24.1 100.01   -18 Mainly Clear
02:00 -14.1 -15.4 90   29 7 24.1 100.05   -19 LegendNANA
03:00 -14.0 -15.4 90   28 3 24.1 100.06   -16 LegendNANA
04:00 -14.7 -16.2 88   33 4 24.1 100.05   -18 Mostly Cloudy
05:00 -15.3 -17.0 87   36 1 24.1 100.07   -16 LegendNANA
06:00 -15.7 -17.5 87   36 2 24.1 100.08   -17 LegendNANA
07:00 -15.3 -17.1 87   21 7 24.1 100.15   -20 Mostly Cloudy
08:00 -14.9 -16.6 87   20 5 24.1 100.19   -18 LegendNANA
09:00 -13.4 -15.0 88   36 2 24.1 100.18   -15 LegendNANA
10:00 -12.4 -13.9 89   36 3 24.1 100.18   -14 Mostly Cloudy
11:00 -10.6 -12.0 89   10 7 24.1 100.11   -15 LegendNANA
12:00 -8.5 -11.9 77   12 6 24.1 100.02   -12 LegendNANA
13:00 -8.0 -11.2 78   6 8 16.1 99.92   -12 Snow
14:00 -7.6 -10.8 78   11 12 16.1 99.90   -13 Snow
15:00 -8.0 -10.5 82   13 13 1.6 99.91   -14 Snow
16:00 -8.2 -9.9 87   9 6 4.8 99.96   -11 Snow
17:00 -8.2 -9.8 89   9 8 16.1 99.95   -12 Snow
18:00 -8.9 -10.3 89   5 11 24.1 99.98   -14 LegendNANA
19:00 -8.6 -10.0 89   8 9 16.1 99.97   -13 Snow
20:00 -8.8 -10.2 90   5 10 6.4 99.92   -14 Snow
21:00 -11.1 -12.5 90   2 9 16.1 99.94   -16 LegendNANA
22:00 -10.4 -11.6 91   5 7 16.1 99.91   -14 Mostly Cloudy
23:00 -10.8 -12.1 90   5 7 16.1 99.87   -15 LegendNANA

Notes on Data Quality.

Legend

  • E = Estimated
  • M = Missing
  • NA = Not Available*
  • [empty] = Indicates an unobserved value
Date modified: